This demonstration page uses our WeatherBlox Daily Observations layout. Learn more.

Left ArrowRight Arrow

36.17497, -115.13722

Hourly Observations for January 13, 2017

Temp ( °F °C ) Dew Point ( °F °C ) Humidity (%) Winds ( mph kmh ) Pressure ( in mb ) Visibility ( mi km ) Precip ( " mm )
12:53 am 00:53 Partly Cloudy 48 8.9 45 7.2 89 89 N N/A 30.01 1016 10 16 0.01 0.25
1:53 am 01:53 Cloudy 48 8.9 45 7.2 89 89 N N/A 30.04 1017 10 16 N/A
2:53 am 02:53 Cloudy 48 8.9 46 7.8 93 93 N N/A 30.05 1018 10 16 N/A
3:53 am 03:53 Cloudy 47 8.3 45 7.2 93 93 N N/A 30.06 1018 10 16 N/A
4:53 am 04:53 Cloudy 48 8.9 45 7.2 89 89 NNW 3 6 30.07 1018 10 16 N/A
5:53 am 05:53 Cloudy 48 8.9 45 7.2 89 89 ESE 5 7 30.09 1019 10 16 N/A
6:53 am 06:53 Cloudy 48 8.9 45 7.2 89 89 N 6 9 30.11 1020 10 16 0.01 0.25
7:53 am 07:53 Cloudy with Mist and Fog 47 8.3 44 6.7 90 90 ENE 9 15 30.14 1021 5 8 0.01 0.25
8:53 am 08:53 Cloudy 47 8.3 43 6.1 86 86 N 9 15 30.16 1021 8 13 0.07 1.78
9:14 am 09:14 Cloudy 48 9 43 6 82 82 N 9 15 30.12 1020 10 16 N/A
9:53 am 09:53 Cloudy 48 8.9 43 6.1 83 83 N 10 17 30.18 1022 10 16 N/A
10:53 am 10:53 Cloudy 50 10 41 5 71 71 NNW 9 15 30.16 1021 10 16 N/A
11:53 am 11:53 Cloudy 52 11.1 41 5 66 66 NNW 12 19 30.12 1020 10 16 N/A
12:53 pm 12:53 Mostly Sunny 52 11.1 41 5 66 66 N 13 20 30.11 1020 10 16 N/A
1:53 pm 13:53 Sunny 54 12.2 42 5.6 64 64 N 10 17 30.11 1020 10 16 N/A
2:53 pm 14:53 Sunny 56 13.3 41 5 57 57 N 13 20 30.12 1020 10 16 N/A
3:53 pm 15:53 Mostly Sunny 55 12.8 40 4.4 57 57 N 12 19 30.12 1020 10 16 N/A
4:53 pm 16:53 Clear 53 11.7 42 5.6 66 66 N 10 17 30.12 1020 10 16 N/A
5:53 pm 17:53 Mostly Clear 52 11.1 41 5 66 66 N 8 13 30.14 1021 10 16 N/A
6:53 pm 18:53 Partly Cloudy 52 11.1 40 4.4 64 64 N 10 17 30.15 1021 10 16 N/A
7:53 pm 19:53 Partly Cloudy 52 11.1 40 4.4 64 64 NNW 13 20 30.16 1021 10 16 N/A
8:53 pm 20:53 Cloudy 52 11.1 40 4.4 64 64 ENE 8 13 30.20 1023 10 16 N/A
9:53 pm 21:53 Mostly Clear 51 10.6 40 4.4 66 66 NNW 14 22 30.19 1022 10 16 N/A
10:53 pm 22:53 Partly Cloudy 52 11.1 39 3.9 61 61 N 14 22 30.19 1022 10 16 N/A
11:53 pm 23:53 Mostly Clear 50 10 38 3.3 63 63 N 15 24 30.18 1022 10 16 N/A

Powered by AerisWeather